FENGYUN 1C DEB

Satellite information

Favourite Embed

Satellite Type and Status

DEBRISIN ORBIT

Key statistics

Satellite FENGYUN 1C DEB at a glance.

Uptime

9496

Days in orbit

Revolutions

≈ 14.3

Per day

Orbit

SSO

Sun Synchronous Orbit

Inclination

99.0

Latest

Satellite identification and parameters

Extended collection of information and parameters for FENGYUN 1C DEB.

Object identification

Identified? True

Debris? True

Object name: FENGYUN 1C DEB

International designator: 1999-025KK

Object number (NORAD): 29961

Object ID (CCSDS): 29961

Country: PEOPLES REPUBLIC OF CHINA (PRC)

Current information (Y/N): Y

RCS size: SMALL

Orbital parameters

Period: 100.981 minutes

Inclination: 98.977 deg

SMA: 7183.253 km

Apoapsis: 858.436 km

Periapsis: 751.8 km

RAAN: 10.3853 deg

Eccentricy: 0.0074225

Argument of periapsis: 215.5599 deg

Mean anomaly: 144.0621 deg

Mean motion: 14.26004883 rev/day

Mean motion (dot): 0.00000374 rev/day2

B* drag term: 0.00017134 1/REarth

Two-line elements (TLE)

Creation date: May 8, 2025, 3:01 a.m.

Reference frame: TEME

Reference center: EARTH

Epoch: May 7, 2025, 11:07 p.m. UTC

TLE line 0: 0 FENGYUN 1C DEB

TLE line 1: 1 29961U 99025KK 25127.96376453 .00000374 00000-0 17134-3 0 9995

TLE line 2: 2 29961 98.9770 10.3853 0074225 215.5599 144.0621 14.26004883951914

Live tracking on map

Real-time ground track for satellite FENGYUN 1C DEB.

In-orbit conjunctions

A list of the most updated potential collisions computed for object FENGYUN 1C DEB.

Target Orbit TCA Probability of collision Miss distance Type
FENGYUN 1C DEB SSO 2025-04-23 23:49:46 0.0001952689 53.0 (m) DEBRIS
CZ-6A DEB SSO 2024-11-12 08:22:48 0.0003618896 348.0 (m) DEBRIS
FENGYUN 1C DEB SSO 2024-11-11 15:04:32 0.0002488223 28.0 (m) DEBRIS
COSMOS 1741 LEO 2024-10-01 10:47:39 0.0002038129 482.0 (m) PAYLOAD
FENGYUN 1C DEB SSO 2024-08-21 04:05:41 0.0001040507 136.0 (m) DEBRIS

Associated space launch

Chinese polar orbiting meteorological satellite

FENGYUN 1C DEB was lifted into orbit during the mission ‘Long March 4B | Feng Yun 1C’, on board a Long March 4B space rocket.

The launch took place on May 10, 1999, 1:33 a.m. from Launch Complex 7.

For more information about the launch, click the button.

Launch to space Long March 4B | Feng Yun 1C
Long March 4B | Feng Yun 1C

Agency: N/A

Status: Launch Successful

Launch date: May 10, 1999, 1:33 a.m. UTC

Rocket: Long March 4B

Launch pad: Launch Complex 7

Location: Taiyuan Satellite Launch Center, People's Republic of China

...

Latest news about this satellite

There are no fresh news available about this satellite. Check back as we update our databases every day.


Newsletter sign-up

Weekly statistics, charts and insights to help you stay on top of the space industry.